"read_dt","SO2 (ppb)","flags","PMT voltage (V)","lamp voltage (V)","lamp intensity (Hz)","internal temp (C)","react chamber temp (C)","sample flow (l/min)","pres (mmHg)","SO2 bkg (ppb)","SO2 coefficient"
2014-02-22 00:00:00,5145E-2,5C000490,-0724,1375,5916,020.8,045.1,0.130,768.8,01.15,0.508
2014-02-22 00:01:00,5158E-2,5C000490,-0724,1375,5914,020.8,045.0,0.130,768.8,01.15,0.508
2014-02-22 00:02:00,5151E-2,5C000490,-0724,1375,5847,020.8,045.0,0.130,768.9,01.15,0.508
2014-02-22 00:03:00,5100E-2,5C000490,-0724,1375,5935,020.7,045.0,0.130,768.9,01.15,0.508
2014-02-22 00:04:00,5103E-2,5C000490,-0724,1375,5920,020.8,045.1,0.130,768.9,01.15,0.508
2014-02-22 00:05:00,5145E-2,5C000490,-0724,1375,5861,020.7,045.0,0.130,768.7,01.15,0.508
2014-02-22 00:06:00,5102E-2,5C000490,-0724,1375,5929,020.7,045.1,0.130,768.9,01.15,0.508
2014-02-22 00:07:00,5115E-2,5C000490,-0724,1375,5968,020.7,045.1,0.130,768.9,01.15,0.508
2014-02-22 00:08:00,5102E-2,5C000490,-0724,1375,5912,020.8,045.1,0.130,768.9,01.15,0.508
2014-02-22 00:09:00,5125E-2,5C000490,-0724,1375,5876,020.8,045.1,0.130,768.9,01.15,0.508
2014-02-22 00:10:00,5125E-2,5C000490,-0724,1375,5872,020.7,045.1,0.130,768.8,01.15,0.508
2014-02-22 00:11:00,5093E-2,5C000490,-0724,1375,5910,020.8,045.1,0.130,768.9,01.15,0.508
2014-02-22 00:12:00,5081E-2,5C000490,-0724,1375,5936,020.7,045.1,0.130,768.9,01.15,0.508
2014-02-22 00:13:00,5086E-2,5C000490,-0724,1375,5889,020.7,045.0,0.130,769.0,01.15,0.508
2014-02-22 00:14:00,5114E-2,5C000490,-0724,1375,5818,020.7,045.1,0.130,768.9,01.15,0.508
2014-02-22 00:15:00,5109E-2,5C000490,-0724,1375,5825,020.7,045.1,0.130,769.1,01.15,0.508
2014-02-22 00:16:00,5105E-2,5C000490,-0724,1375,5802,020.7,045.1,0.130,769.1,01.15,0.508
2014-02-22 00:17:00,5064E-2,5C000490,-0724,1375,5789,020.8,045.1,0.130,769.0,01.15,0.508
2014-02-22 00:18:00,5123E-2,5C000490,-0724,1375,5812,020.7,045.1,0.130,768.9,01.15,0.508
2014-02-22 00:19:00,5115E-2,5C000490,-0724,1375,5857,020.7,045.1,0.130,769.1,01.15,0.508
2014-02-22 00:20:00,5101E-2,5C000490,-0724,1375,5861,020.8,045.1,0.130,768.9,01.15,0.508
2014-02-22 00:21:00,5085E-2,5C000490,-0724,1375,5824,020.7,045.1,0.130,769.0,01.15,0.508
2014-02-22 00:22:00,5095E-2,5C000490,-0724,1375,5848,020.7,045.1,0.130,769.0,01.15,0.508
2014-02-22 00:23:00,5130E-2,5C000490,-0724,1375,5753,020.7,045.1,0.130,769.1,01.15,0.508
2014-02-22 00:24:00,5137E-2,5C000490,-0724,1375,5695,020.7,045.1,0.130,769.1,01.15,0.508
2014-02-22 00:25:00,5139E-2,5C000490,-0724,1375,5768,020.8,045.1,0.130,769.1,01.15,0.508
2014-02-22 00:26:00,5163E-2,5C000490,-0724,1375,5790,020.8,045.1,0.130,769.1,01.15,0.508
2014-02-22 00:27:00,5099E-2,5C000490,-0724,1375,5743,020.8,045.1,0.130,769.1,01.15,0.508
2014-02-22 00:28:00,5083E-2,5C000490,-0724,1375,5773,020.7,045.1,0.130,769.1,01.15,0.508
2014-02-22 00:29:00,5093E-2,5C000490,-0724,1375,5768,020.8,045.0,0.130,769.1,01.15,0.508
2014-02-22 00:30:00,5055E-2,5C000490,-0724,1375,5739,020.8,045.1,0.130,769.1,01.15,0.508
2014-02-22 00:31:00,5161E-2,5C000490,-0724,1375,5781,020.8,045.1,0.130,769.1,01.15,0.508
2014-02-22 00:32:00,5161E-2,5C000490,-0724,1375,5726,020.8,045.1,0.130,769.1,01.15,0.508
2014-02-22 00:33:00,5136E-2,5C000490,-0724,1375,5666,020.8,045.1,0.130,769.3,01.15,0.508
2014-02-22 00:34:00,5159E-2,5C000490,-0724,1375,5716,020.8,045.1,0.130,769.3,01.15,0.508
2014-02-22 00:35:00,5137E-2,5C000490,-0724,1375,5756,020.7,045.1,0.130,769.3,01.15,0.508
2014-02-22 00:36:00,5104E-2,5C000490,-0724,1375,5710,020.8,045.1,0.130,769.2,01.15,0.508
2014-02-22 00:37:00,5113E-2,5C000490,-0724,1375,5815,020.8,045.1,0.130,769.3,01.15,0.508
2014-02-22 00:38:00,5094E-2,5C000490,-0724,1375,5801,020.8,045.1,0.130,769.1,01.15,0.508
2014-02-22 00:39:00,5056E-2,5C000490,-0724,1375,5815,020.8,045.1,0.130,769.1,01.15,0.508
2014-02-22 00:40:00,5121E-2,5C000490,-0724,1375,5752,020.8,045.1,0.130,769.1,01.15,0.508
2014-02-22 00:41:00,5172E-2,5C000490,-0724,1375,5850,020.8,045.1,0.130,769.1,01.15,0.508
2014-02-22 00:42:00,5182E-2,5C000490,-0724,1375,5853,020.8,045.1,0.130,769.1,01.15,0.508
2014-02-22 00:43:00,5173E-2,5C000490,-0724,1375,5839,020.8,045.1,0.130,769.2,01.15,0.508
2014-02-22 00:44:00,5155E-2,5C000490,-0724,1375,5819,020.8,045.1,0.130,769.2,01.15,0.508
2014-02-22 00:45:00,5115E-2,5C000490,-0724,1375,5789,020.8,045.1,0.130,769.1,01.15,0.508
2014-02-22 00:46:00,5096E-2,5C000490,-0724,1375,5847,020.8,045.1,0.130,769.1,01.15,0.508
2014-02-22 00:47:00,5186E-2,5C000490,-0724,1375,5731,020.8,045.1,0.130,769.1,01.15,0.508
2014-02-22 00:48:00,5184E-2,5C000490,-0724,1375,5672,020.8,045.1,0.130,769.1,01.15,0.508
2014-02-22 00:49:00,5255E-2,5C000490,-0724,1375,5630,020.7,045.1,0.130,769.1,01.15,0.508
2014-02-22 00:50:00,5229E-2,5C000490,-0724,1375,5688,020.7,045.1,0.130,769.1,01.15,0.508
2014-02-22 00:51:00,5241E-2,5C000490,-0724,1375,5701,020.7,045.1,0.130,769.1,01.15,0.508
2014-02-22 00:52:00,5206E-2,5C000490,-0724,1375,5705,020.7,045.1,0.130,769.1,01.15,0.508
2014-02-22 00:53:00,5052E-2,5C000490,-0724,1375,5563,020.7,045.1,0.130,769.1,01.15,0.508
2014-02-22 00:54:00,5135E-2,5C000490,-0724,1375,5598,020.7,045.1,0.130,769.1,01.15,0.508
2014-02-22 00:55:00,5147E-2,5C000490,-0724,1375,5605,020.7,045.1,0.130,769.2,01.15,0.508
2014-02-22 00:56:00,5109E-2,5C000490,-0724,1375,5661,020.7,045.1,0.130,769.1,01.15,0.508
2014-02-22 00:57:00,5121E-2,5C000490,-0724,1375,5734,020.7,045.1,0.130,769.1,01.15,0.508
2014-02-22 00:58:00,5117E-2,5C000490,-0724,1375,5793,020.7,045.0,0.130,769.2,01.15,0.508
2014-02-22 00:59:00,5151E-2,5C000490,-0724,1375,5679,020.7,045.0,0.130,769.2,01.15,0.508
2014-02-22 01:00:00,5145E-2,5C000490,-0724,1375,5723,020.8,045.1,0.130,769.2,01.15,0.508
2014-02-22 01:01:00,5096E-2,5C000490,-0724,1375,5741,020.8,045.1,0.130,769.3,01.15,0.508
2014-02-22 01:02:00,5126E-2,5C000490,-0724,1375,5671,020.8,045.1,0.130,769.3,01.15,0.508
2014-02-22 01:03:00,5181E-2,5C000490,-0724,1375,5672,020.8,045.1,0.130,769.2,01.15,0.508
2014-02-22 01:04:00,5146E-2,5C000490,-0724,1375,5601,020.8,045.1,0.130,769.4,01.15,0.508
2014-02-22 01:05:00,5098E-2,5C000490,-0724,1375,5541,020.8,045.1,0.130,769.5,01.15,0.508
2014-02-22 01:06:00,5210E-2,5C000490,-0724,1375,5596,020.8,045.1,0.130,769.4,01.15,0.508
2014-02-22 01:07:00,5142E-2,5C000490,-0724,1375,5619,020.8,045.1,0.130,769.4,01.15,0.508
2014-02-22 01:08:00,5200E-2,5C000490,-0724,1375,5511,020.8,045.1,0.130,769.4,01.15,0.508
2014-02-22 01:09:00,5142E-2,5C000490,-0724,1375,5607,020.8,045.1,0.130,769.5,01.15,0.508
2014-02-22 01:10:00,5156E-2,5C000490,-0724,1375,5585,020.8,045.1,0.130,769.4,01.15,0.508
2014-02-22 01:11:00,5155E-2,5C000490,-0724,1375,5547,020.8,045.1,0.130,769.4,01.15,0.508
2014-02-22 01:12:00,5166E-2,5C000490,-0724,1375,5478,020.8,045.1,0.130,769.5,01.15,0.508
2014-02-22 01:13:00,5134E-2,5C000490,-0724,1375,5497,020.8,045.1,0.130,769.4,01.15,0.508
2014-02-22 01:14:00,5097E-2,5C000490,-0724,1375,5479,020.8,045.1,0.130,769.5,01.15,0.508
2014-02-22 01:15:00,5127E-2,5C000490,-0724,1375,5493,020.8,045.1,0.130,769.4,01.15,0.508
2014-02-22 01:16:00,5050E-2,5C000490,-0724,1375,5496,020.8,045.1,0.130,769.5,01.15,0.508
2014-02-22 01:17:00,5147E-2,5C000490,-0724,1375,5481,020.8,045.1,0.130,769.5,01.15,0.508
2014-02-22 01:18:00,5053E-2,5C000490,-0724,1375,5407,020.8,045.1,0.130,769.5,01.15,0.508
2014-02-22 01:19:00,5024E-2,5C000490,-0724,1375,5480,020.8,045.1,0.130,769.4,01.15,0.508
2014-02-22 01:20:00,5110E-2,5C000490,-0724,1375,5434,020.9,045.1,0.130,769.4,01.15,0.508
2014-02-22 01:21:00,5123E-2,5C000490,-0724,1375,5461,020.8,045.1,0.130,769.4,01.15,0.508
2014-02-22 01:22:00,5042E-2,5C000490,-0724,1375,5423,020.9,045.1,0.130,769.4,01.15,0.508
2014-02-22 01:23:00,5019E-2,5C000490,-0724,1375,5396,020.8,045.1,0.130,769.5,01.15,0.508
2014-02-22 01:24:00,5023E-2,5C000490,-0724,1375,5409,020.9,045.1,0.130,769.3,01.15,0.508
2014-02-22 01:25:00,5016E-2,5C000490,-0724,1375,5404,020.9,045.1,0.130,769.4,01.15,0.508
2014-02-22 01:26:00,5076E-2,5C000490,-0724,1375,5338,020.9,045.1,0.130,769.4,01.15,0.508
2014-02-22 01:27:00,5073E-2,5C000490,-0724,1375,5346,020.9,045.0,0.130,769.4,01.15,0.508
2014-02-22 01:28:00,5060E-2,5C000490,-0724,1375,5258,020.9,045.1,0.130,769.4,01.15,0.508
2014-02-22 01:29:00,4997E-2,5C000490,-0724,1375,5380,020.9,045.1,0.130,769.4,01.15,0.508
2014-02-22 01:30:00,5009E-2,5C000490,-0724,1375,5409,020.9,045.1,0.130,769.3,01.15,0.508
2014-02-22 01:31:00,5086E-2,5C000490,-0724,1375,5401,020.9,045.1,0.130,769.2,01.15,0.508
2014-02-22 01:32:00,5009E-2,5C000490,-0724,1375,5328,020.9,045.0,0.130,769.1,01.15,0.508
2014-02-22 01:33:00,4979E-2,5C000490,-0724,1375,5392,020.9,045.1,0.130,769.1,01.15,0.508
2014-02-22 01:34:00,5021E-2,5C000490,-0724,1375,5388,021.0,045.1,0.130,769.1,01.15,0.508
2014-02-22 01:35:00,5055E-2,5C000490,-0724,1375,5384,020.9,045.1,0.130,769.1,01.15,0.508
2014-02-22 01:36:00,5029E-2,5C000490,-0724,1375,5363,021.0,045.1,0.130,769.1,01.15,0.508
2014-02-22 01:37:00,5078E-2,5C000490,-0724,1375,5362,021.0,045.1,0.130,769.1,01.15,0.508
2014-02-22 01:38:00,5029E-2,5C000490,-0724,1375,5298,021.0,045.1,0.129,769.1,01.15,0.508
2014-02-22 01:39:00,5050E-2,5C000490,-0724,1375,5386,020.9,045.1,0.129,769.1,01.15,0.508
2014-02-22 01:40:00,5032E-2,5C000490,-0724,1375,5313,020.9,045.1,0.130,769.2,01.15,0.508
2014-02-22 01:41:00,5035E-2,5C000490,-0724,1375,5352,021.0,045.0,0.129,769.2,01.15,0.508
2014-02-22 01:42:00,5052E-2,5C000490,-0724,1375,5319,020.9,045.1,0.129,769.3,01.15,0.508
2014-02-22 01:43:00,5060E-2,5C000490,-0724,1375,5272,020.9,045.1,0.130,769.1,01.15,0.508
2014-02-22 01:44:00,5063E-2,5C000490,-0724,1375,5370,020.9,045.1,0.129,769.1,01.15,0.508
2014-02-22 01:45:00,5055E-2,5C000490,-0724,1375,5292,020.9,045.1,0.129,769.1,01.15,0.508
2014-02-22 01:46:00,5093E-2,5C000490,-0724,1375,5300,020.9,045.1,0.129,769.2,01.15,0.508
2014-02-22 01:47:00,5115E-2,5C000490,-0724,1375,5273,020.9,045.1,0.130,769.1,01.15,0.508
2014-02-22 01:48:00,5058E-2,5C000490,-0724,1375,5288,020.9,045.1,0.129,769.2,01.15,0.508
2014-02-22 01:49:00,5060E-2,5C000490,-0724,1375,5281,020.9,045.1,0.129,769.1,01.15,0.508
2014-02-22 01:50:00,5038E-2,5C000490,-0724,1375,5237,020.9,045.0,0.130,769.0,01.15,0.508
2014-02-22 01:51:00,5064E-2,5C000490,-0724,1375,5206,020.9,045.1,0.130,769.1,01.15,0.508
2014-02-22 01:52:00,5002E-2,5C000490,-0724,1375,5248,020.9,045.1,0.130,769.1,01.15,0.508
2014-02-22 01:53:00,5069E-2,5C000490,-0724,1375,5228,020.9,045.1,0.130,769.1,01.15,0.508
2014-02-22 01:54:00,5045E-2,5C000490,-0724,1375,5225,020.9,045.1,0.130,769.3,01.15,0.508
2014-02-22 01:55:00,5097E-2,5C000490,-0724,1375,5273,020.9,045.1,0.130,769.3,01.15,0.508
2014-02-22 01:56:00,5076E-2,5C000490,-0724,1375,5222,020.9,045.1,0.130,769.3,01.15,0.508
2014-02-22 01:57:00,5017E-2,5C000490,-0724,1375,5242,020.9,045.1,0.130,769.3,01.15,0.508
2014-02-22 01:58:00,5080E-2,5C000490,-0724,1375,5226,020.9,045.1,0.130,769.3,01.15,0.508
2014-02-22 01:59:00,5025E-2,5C000490,-0724,1375,5216,020.9,045.1,0.130,769.2,01.15,0.508
2014-02-22 02:00:00,5042E-2,5C000490,-0724,1375,5239,021.0,045.1,0.130,769.2,01.15,0.508
2014-02-22 02:01:00,5039E-2,5C000490,-0724,1375,5145,020.9,045.1,0.130,769.3,01.15,0.508
2014-02-22 02:02:00,5071E-2,5C000490,-0724,1375,5175,020.9,045.1,0.130,769.2,01.15,0.508
2014-02-22 02:03:00,5045E-2,5C000490,-0724,1375,5103,020.9,045.1,0.130,769.2,01.15,0.508
2014-02-22 02:04:00,5010E-2,5C000490,-0724,1375,5202,020.9,045.1,0.130,769.3,01.15,0.508
2014-02-22 02:05:00,5032E-2,5C000490,-0724,1375,5173,021.0,045.1,0.129,769.3,01.15,0.508
2014-02-22 02:06:00,5055E-2,5C000490,-0724,1375,5065,021.0,045.1,0.130,769.3,01.15,0.508
2014-02-22 02:07:00,5077E-2,5C000490,-0724,1375,5088,021.0,045.1,0.130,769.3,01.15,0.508
2014-02-22 02:08:00,5097E-2,5C000490,-0724,1375,5151,021.0,045.1,0.129,769.3,01.15,0.508
2014-02-22 02:09:00,5013E-2,5C000490,-0724,1375,5092,021.0,045.1,0.129,769.4,01.15,0.508
2014-02-22 02:10:00,5066E-2,5C000490,-0724,1375,5132,021.0,045.1,0.129,769.3,01.15,0.508
2014-02-22 02:11:00,5089E-2,5C000490,-0724,1375,5032,021.0,045.1,0.129,769.4,01.15,0.508
2014-02-22 02:12:00,5113E-2,5C000490,-0724,1375,5073,021.0,045.1,0.129,769.3,01.15,0.508
2014-02-22 02:13:00,5106E-2,5C000490,-0724,1375,5005,021.0,045.1,0.129,769.4,01.15,0.508
2014-02-22 02:14:00,5115E-2,5C000490,-0724,1375,5039,021.0,045.1,0.129,769.5,01.15,0.508
2014-02-22 02:15:00,5117E-2,5C000490,-0724,1375,5044,021.0,045.1,0.129,769.4,01.15,0.508
2014-02-22 02:16:00,5162E-2,5C000490,-0724,1375,5040,021.0,045.1,0.129,769.4,01.15,0.508
2014-02-22 02:17:00,5103E-2,5C000490,-0724,1375,5030,021.0,045.1,0.129,769.5,01.15,0.508
2014-02-22 02:18:00,5089E-2,5C000490,-0724,1375,4956,021.0,045.1,0.129,769.5,01.15,0.508
2014-02-22 02:19:00,5068E-2,5C000490,-0724,1375,5064,021.0,045.1,0.129,769.5,01.15,0.508
2014-02-22 02:20:00,5085E-2,5C000490,-0724,1375,5087,021.0,045.1,0.129,769.5,01.15,0.508
2014-02-22 02:21:00,5123E-2,5C000490,-0724,1375,5122,021.0,045.1,0.129,769.5,01.15,0.508
2014-02-22 02:22:00,5088E-2,5C000490,-0724,1375,5039,021.0,045.1,0.129,769.6,01.15,0.508
2014-02-22 02:23:00,5094E-2,5C000490,-0724,1375,5071,021.0,045.1,0.129,769.6,01.15,0.508
2014-02-22 02:24:00,5143E-2,5C000490,-0724,1375,5137,021.0,045.1,0.129,769.5,01.15,0.508
2014-02-22 02:25:00,5093E-2,5C000490,-0724,1375,5113,021.0,045.1,0.129,769.6,01.15,0.508
2014-02-22 02:26:00,5123E-2,5C000490,-0724,1375,5019,021.1,045.1,0.129,769.5,01.15,0.508
2014-02-22 02:27:00,5082E-2,5C000490,-0724,1375,5093,021.1,045.1,0.129,769.6,01.15,0.508
2014-02-22 02:28:00,5136E-2,5C000490,-0724,1375,5143,021.1,045.1,0.129,769.5,01.15,0.508
2014-02-22 02:29:00,5097E-2,5C000490,-0724,1375,5145,021.1,045.1,0.129,769.6,01.15,0.508
2014-02-22 02:30:00,5051E-2,5C000490,-0724,1375,5154,021.1,045.1,0.129,769.6,01.15,0.508
2014-02-22 02:31:00,5157E-2,5C000490,-0724,1375,5111,021.1,045.1,0.129,769.5,01.15,0.508
2014-02-22 02:32:00,5121E-2,5C000490,-0724,1375,5106,021.1,045.1,0.129,769.6,01.15,0.508
2014-02-22 02:33:00,5114E-2,5C000490,-0724,1375,5163,021.1,045.1,0.129,769.6,01.15,0.508
2014-02-22 02:34:00,5092E-2,5C000490,-0724,1375,5090,021.1,045.1,0.129,769.6,01.15,0.508
2014-02-22 02:35:00,5095E-2,5C000490,-0724,1375,5110,021.1,045.1,0.129,769.7,01.15,0.508
2014-02-22 02:36:00,5146E-2,5C000490,-0724,1375,5196,021.1,045.1,0.129,769.6,01.15,0.508
2014-02-22 02:37:00,5129E-2,5C000490,-0724,1375,5078,021.1,045.1,0.129,769.6,01.15,0.508
2014-02-22 02:38:00,5107E-2,5C000490,-0724,1375,5145,021.1,045.1,0.129,769.6,01.15,0.508
2014-02-22 02:39:00,5118E-2,5C000490,-0724,1375,5136,021.1,045.1,0.129,769.6,01.15,0.508
2014-02-22 02:40:00,5172E-2,5C000490,-0724,1375,5020,021.1,045.1,0.129,769.6,01.15,0.508
2014-02-22 02:41:00,5061E-2,5C000490,-0724,1375,5184,021.1,045.1,0.129,769.6,01.15,0.508
2014-02-22 02:42:00,5084E-2,5C000490,-0724,1375,5237,021.1,045.1,0.129,769.6,01.15,0.508
2014-02-22 02:43:00,5059E-2,5C000490,-0724,1375,5208,021.1,045.1,0.129,769.6,01.15,0.508
2014-02-22 02:44:00,5061E-2,5C000490,-0724,1375,5110,021.1,045.1,0.129,769.5,01.15,0.508
2014-02-22 02:45:00,5160E-2,5C000490,-0724,1375,5178,021.1,045.1,0.129,769.5,01.15,0.508
2014-02-22 02:46:00,5247E-2,5C000490,-0724,1375,5129,021.1,045.1,0.129,769.6,01.15,0.508
2014-02-22 02:47:00,5237E-2,5C000490,-0724,1375,5142,021.1,045.1,0.129,769.5,01.15,0.508
2014-02-22 02:48:00,5195E-2,5C000490,-0724,1375,5190,021.1,045.1,0.129,769.5,01.15,0.508
2014-02-22 02:49:00,5235E-2,5C000490,-0724,1375,5115,021.1,045.1,0.129,769.6,01.15,0.508
2014-02-22 02:50:00,5228E-2,5C000490,-0724,1375,5133,021.1,045.1,0.129,769.6,01.15,0.508
2014-02-22 02:51:00,5279E-2,5C000490,-0724,1375,5024,021.1,045.1,0.129,769.6,01.15,0.508
2014-02-22 02:52:00,5263E-2,5C000490,-0724,1375,5048,021.1,045.1,0.129,769.6,01.15,0.508
2014-02-22 02:53:00,5213E-2,5C000490,-0724,1375,5108,021.1,045.1,0.129,769.6,01.15,0.508
2014-02-22 02:54:00,5215E-2,5C000490,-0724,1375,5011,021.1,045.1,0.129,769.5,01.15,0.508
2014-02-22 02:55:00,5257E-2,5C000490,-0724,1375,5062,021.1,045.1,0.129,769.6,01.15,0.508
2014-02-22 02:56:00,5234E-2,5C000490,-0724,1375,5034,021.1,045.1,0.129,769.6,01.15,0.508
2014-02-22 02:57:00,5203E-2,5C000490,-0724,1375,5062,021.2,045.1,0.129,769.7,01.15,0.508
2014-02-22 02:58:00,5177E-2,5C000490,-0724,1375,4974,021.1,045.1,0.129,769.7,01.15,0.508
2014-02-22 02:59:00,5181E-2,5C000490,-0724,1375,5028,021.2,045.1,0.129,769.5,01.15,0.508
2014-02-22 03:00:00,5256E-2,5C000490,-0724,1375,4993,021.2,045.1,0.129,769.5,01.15,0.508
2014-02-22 03:01:00,5187E-2,5C000490,-0724,1375,4998,021.2,045.1,0.129,769.6,01.15,0.508
2014-02-22 03:02:00,5167E-2,5C000490,-0724,1375,4996,021.2,045.1,0.129,769.5,01.15,0.508
2014-02-22 03:03:00,5232E-2,5C000490,-0724,1375,5002,021.1,045.1,0.129,769.6,01.15,0.508
2014-02-22 03:04:00,5164E-2,5C000490,-0724,1375,5049,021.2,045.1,0.129,769.5,01.15,0.508
2014-02-22 03:05:00,5197E-2,5C000490,-0724,1375,5023,021.2,045.1,0.129,769.5,01.15,0.508
2014-02-22 03:06:00,5197E-2,5C000490,-0724,1375,4988,021.2,045.1,0.129,769.4,01.15,0.508
2014-02-22 03:07:00,5166E-2,5C000490,-0724,1375,4973,021.2,045.1,0.129,769.4,01.15,0.508
2014-02-22 03:08:00,5172E-2,5C000490,-0724,1375,5297,021.2,045.1,0.129,769.4,01.15,0.508
2014-02-22 03:09:00,5220E-2,5C000490,-0724,1375,5239,021.2,045.1,0.129,769.5,01.15,0.508
2014-02-22 03:10:00,5253E-2,5C000490,-0724,1375,5287,021.2,045.1,0.129,769.4,01.15,0.508
2014-02-22 03:11:00,5241E-2,5C000490,-0724,1375,5174,021.2,045.1,0.129,769.4,01.15,0.508
2014-02-22 03:12:00,5265E-2,5C000490,-0724,1375,5176,021.2,045.1,0.129,769.3,01.15,0.508
2014-02-22 03:13:00,5278E-2,5C000490,-0724,1375,5265,021.2,045.1,0.129,769.4,01.15,0.508
2014-02-22 03:14:00,5260E-2,5C000490,-0724,1375,5211,021.2,045.1,0.129,769.4,01.15,0.508
2014-02-22 03:15:00,5267E-2,5C000490,-0724,1375,5231,021.2,045.1,0.129,769.3,01.15,0.508
2014-02-22 03:16:00,5220E-2,5C000490,-0724,1375,5221,021.2,045.1,0.128,769.4,01.15,0.508
2014-02-22 03:17:00,5287E-2,5C000490,-0724,1375,5188,021.2,045.1,0.129,769.4,01.15,0.508
2014-02-22 03:18:00,5222E-2,5C000490,-0724,1375,5198,021.2,045.1,0.129,769.4,01.15,0.508
2014-02-22 03:19:00,5233E-2,5C000490,-0724,1375,5232,021.2,045.1,0.129,769.5,01.15,0.508
2014-02-22 03:20:00,5223E-2,5C000490,-0724,1375,5129,021.2,045.1,0.129,769.5,01.15,0.508
2014-02-22 03:21:00,5239E-2,5C000490,-0724,1375,5228,021.2,045.1,0.129,769.6,01.15,0.508
2014-02-22 03:22:00,5187E-2,5C000490,-0724,1375,5167,021.2,045.1,0.129,769.5,01.15,0.508
2014-02-22 03:23:00,5237E-2,5C000490,-0724,1375,5081,021.2,045.1,0.129,769.4,01.15,0.508
2014-02-22 03:24:00,5166E-2,5C000490,-0724,1375,5157,021.2,045.1,0.128,769.6,01.15,0.508
2014-02-22 03:25:00,5263E-2,5C000490,-0724,1375,5186,021.2,045.1,0.129,769.6,01.15,0.508
2014-02-22 03:26:00,5207E-2,5C000490,-0724,1375,5151,021.2,045.1,0.128,769.6,01.15,0.508
2014-02-22 03:27:00,5192E-2,5C000490,-0724,1375,5224,021.2,045.1,0.129,769.5,01.15,0.508
2014-02-22 03:28:00,5206E-2,5C000490,-0724,1375,5212,021.3,045.1,0.128,769.7,01.15,0.508
2014-02-22 03:29:00,5202E-2,5C000490,-0724,1375,5190,021.3,045.1,0.128,769.6,01.15,0.508
2014-02-22 03:30:00,5188E-2,5C000490,-0724,1375,5198,021.3,045.1,0.128,769.6,01.15,0.508
2014-02-22 03:31:00,5224E-2,5C000490,-0724,1375,5121,021.3,045.1,0.128,769.6,01.15,0.508
2014-02-22 03:32:00,5150E-2,5C000490,-0724,1375,5196,021.3,045.1,0.128,769.5,01.15,0.508
2014-02-22 03:33:00,5189E-2,5C000490,-0724,1375,5180,021.3,045.1,0.128,769.6,01.15,0.508
2014-02-22 03:34:00,5128E-2,5C000490,-0724,1375,5206,021.3,045.1,0.128,769.6,01.15,0.508
2014-02-22 03:35:00,5205E-2,5C000490,-0724,1375,5124,021.3,045.1,0.128,769.7,01.15,0.508
2014-02-22 03:36:00,5163E-2,5C000490,-0724,1375,5193,021.3,045.1,0.128,769.5,01.15,0.508
2014-02-22 03:37:00,5179E-2,5C000490,-0724,1375,5185,021.3,045.1,0.128,769.6,01.15,0.508
2014-02-22 03:38:00,5161E-2,5C000490,-0724,1375,5099,021.3,045.1,0.128,769.6,01.15,0.508
2014-02-22 03:39:00,5128E-2,5C000490,-0724,1375,5148,021.3,045.1,0.128,769.6,01.15,0.508
2014-02-22 03:40:00,5179E-2,5C000490,-0724,1375,5119,021.4,045.1,0.128,769.7,01.15,0.508
2014-02-22 03:41:00,5200E-2,5C000490,-0724,1375,5167,021.4,045.1,0.128,769.6,01.15,0.508
2014-02-22 03:42:00,5194E-2,5C000490,-0724,1375,5137,021.4,045.1,0.128,769.6,01.15,0.508
2014-02-22 03:43:00,5069E-2,5C000490,-0724,1375,5153,021.4,045.1,0.128,769.6,01.15,0.508
2014-02-22 03:44:00,5137E-2,5C000490,-0724,1375,5113,021.4,045.1,0.128,769.7,01.15,0.508
2014-02-22 03:45:00,5102E-2,5C000490,-0724,1375,5146,021.4,045.1,0.128,769.6,01.15,0.508
2014-02-22 03:46:00,5163E-2,5C000490,-0724,1375,5128,021.4,045.1,0.128,769.7,01.15,0.508
2014-02-22 03:47:00,5085E-2,5C000490,-0724,1375,5086,021.4,045.1,0.128,769.6,01.15,0.508
2014-02-22 03:48:00,5056E-2,5C000490,-0724,1375,5096,021.4,045.1,0.128,769.6,01.15,0.508
2014-02-22 03:49:00,5091E-2,5C000490,-0724,1375,5064,021.4,045.1,0.128,769.6,01.15,0.508
2014-02-22 03:50:00,5139E-2,5C000490,-0724,1375,5109,021.4,045.1,0.128,769.6,01.15,0.508
2014-02-22 03:51:00,5142E-2,5C000490,-0724,1375,5103,021.4,045.1,0.128,769.7,01.15,0.508
2014-02-22 03:52:00,5150E-2,5C000490,-0724,1375,5086,021.4,045.1,0.128,769.7,01.15,0.508
2014-02-22 03:53:00,5138E-2,5C000490,-0724,1375,5083,021.4,045.1,0.128,769.6,01.15,0.508
2014-02-22 03:54:00,5597E-2,5C000490,-0724,1375,5149,021.4,045.1,0.128,769.7,01.15,0.508
2014-02-22 03:55:00,5776E-2,5C000490,-0724,1375,5132,021.4,045.1,0.128,769.7,01.15,0.508
2014-02-22 03:56:00,5745E-2,5C000490,-0724,1375,5094,021.4,045.1,0.128,769.7,01.15,0.508
2014-02-22 03:57:00,5769E-2,5C000490,-0724,1375,5360,021.5,045.1,0.127,769.7,01.15,0.508
2014-02-22 03:58:00,5840E-2,5C000490,-0724,1375,5375,021.4,045.1,0.128,769.7,01.15,0.508
2014-02-22 03:59:00,5778E-2,5C000490,-0724,1375,5356,021.5,045.1,0.128,769.8,01.15,0.508
2014-02-22 04:00:00,5848E-2,5C000490,-0724,1375,5408,021.5,045.1,0.128,769.8,01.15,0.508
2014-02-22 04:01:00,5818E-2,5C000490,-0724,1375,5321,021.5,045.1,0.128,769.8,01.15,0.508
2014-02-22 04:02:00,5758E-2,5C000490,-0724,1375,5373,021.5,045.1,0.128,769.8,01.15,0.508
2014-02-22 04:03:00,5778E-2,5C000490,-0724,1375,5369,021.5,045.1,0.127,769.8,01.15,0.508
2014-02-22 04:04:00,5740E-2,5C000490,-0724,1375,5312,021.5,045.1,0.127,769.8,01.15,0.508
2014-02-22 04:05:00,5774E-2,5C000490,-0724,1375,5307,021.5,045.1,0.127,769.8,01.15,0.508
2014-02-22 04:06:00,5757E-2,5C000490,-0724,1375,5313,021.5,045.1,0.127,769.9,01.15,0.508
2014-02-22 04:07:00,5810E-2,5C000490,-0724,1375,5251,021.5,045.1,0.127,769.8,01.15,0.508
2014-02-22 04:08:00,5848E-2,5C000490,-0724,1375,5244,021.5,045.1,0.127,769.9,01.15,0.508
2014-02-22 04:09:00,5792E-2,5C000490,-0724,1375,5223,021.5,045.1,0.127,769.9,01.15,0.508
2014-02-22 04:10:00,5780E-2,5C000490,-0724,1375,5180,021.5,045.1,0.127,769.9,01.15,0.508
2014-02-22 04:11:00,5797E-2,5C000490,-0724,1375,5268,021.5,045.1,0.127,769.9,01.15,0.508
2014-02-22 04:12:00,5771E-2,5C000490,-0724,1375,5212,021.6,045.1,0.127,770.0,01.15,0.508
2014-02-22 04:13:00,5723E-2,5C000490,-0724,1375,5176,021.6,045.1,0.127,769.9,01.15,0.508
2014-02-22 04:14:00,5736E-2,5C000490,-0724,1375,5235,021.6,045.1,0.127,769.9,01.15,0.508
2014-02-22 04:15:00,5732E-2,5C000490,-0724,1375,5232,021.6,045.1,0.127,770.0,01.15,0.508
2014-02-22 04:16:00,5732E-2,5C000490,-0724,1375,5260,021.6,045.1,0.127,770.0,01.15,0.508
2014-02-22 04:17:00,5741E-2,5C000490,-0724,1375,5215,021.6,045.1,0.127,769.9,01.15,0.508
2014-02-22 04:18:00,5749E-2,5C000490,-0724,1375,5157,021.6,045.1,0.127,769.9,01.15,0.508
2014-02-22 04:19:00,5734E-2,5C000490,-0724,1375,5156,021.6,045.1,0.127,770.0,01.15,0.508
2014-02-22 04:20:00,5709E-2,5C000490,-0724,1375,5157,021.6,045.1,0.127,769.9,01.15,0.508
2014-02-22 04:21:00,5735E-2,5C000490,-0724,1375,5208,021.6,045.1,0.127,770.0,01.15,0.508
2014-02-22 04:22:00,5735E-2,5C000490,-0724,1375,5256,021.6,045.1,0.127,770.0,01.15,0.508
2014-02-22 04:23:00,5755E-2,5C000490,-0724,1375,5219,021.6,045.1,0.127,770.0,01.15,0.508